| time (UTC) | temp F | wind direction | speed knots | gust knots | rain 1hr in | rain 24hr in | rain mn in | humidity % | barometer mb |
| 20260903151518 | 80 | 360 | 0.0 | 4.3 | 0.00 | 0.00 | 0.00 | 42 | 1017.9 |
| 20260903150020 | 80 | 199 | 0.0 | 7.8 | 0.00 | 0.00 | 0.00 | 42 | 1017.8 |
| 20260903144520 | 81 | 126 | 0.9 | 7.8 | 0.00 | 0.00 | 0.00 | 41 | 1017.9 |
| 20260903143018 | 81 | 309 | 1.7 | 7.0 | 0.00 | 0.00 | 0.00 | 41 | 1017.9 |
| 20260903141517 | 82 | 355 | 0.0 | 3.5 | 0.00 | 0.00 | 0.00 | 40 | 1018.0 |
| 20260903140017 | 82 | 327 | 1.7 | 10.4 | 0.00 | 0.00 | 0.00 | 39 | 1018.0 |
| 20260903134516 | 82 | 360 | 0.0 | 8.7 | 0.00 | 0.00 | 0.00 | 40 | 1017.9 |
| 20260903133015 | 82 | 312 | 1.7 | 7.8 | 0.00 | 0.00 | 0.00 | 39 | 1017.8 |
| 20260903131517 | 82 | 316 | 0.0 | 8.7 | 0.00 | 0.00 | 0.00 | 39 | 1018.0 |
| 20260903130013 | 83 | 338 | 0.9 | 4.3 | 0.00 | 0.00 | 0.00 | 38 | 1018.0 |
| 20260903124512 | 82 | 288 | 2.6 | 10.4 | 0.00 | 0.00 | 0.00 | 38 | 1018.0 |
| 20260903123011 | 84 | 333 | 1.7 | 8.7 | 0.00 | 0.00 | 0.00 | 36 | 1018.3 |
| 20260903121521 | 83 | 323 | 1.7 | 7.0 | 0.00 | 0.00 | 0.00 | 39 | 1018.5 |
| 20260903120009 | 84 | 344 | 0.9 | 13.9 | 0.00 | 0.00 | 0.00 | 38 | 1018.5 |
| 20260903114506 | 83 | 319 | 1.7 | 7.0 | 0.00 | 0.00 | 0.00 | 38 | 1018.6 |
| 20260903113007 | 83 | 340 | 2.6 | 10.4 | 0.00 | 0.00 | 0.00 | 38 | 1018.7 |
| 20260903111501 | 82 | 335 | 2.6 | 10.4 | 0.00 | 0.00 | 0.00 | 37 | 1018.7 |
| 20260903110103 | 80 | 44 | 0.9 | 12.2 | 0.00 | 0.00 | 0.00 | 40 | 1018.9 |
| 20260903104558 | 80 | 43 | 1.7 | 7.0 | 0.00 | 0.00 | 0.00 | 39 | 1018.9 |
| 20260903103057 | 80 | 323 | 0.9 | 7.8 | 0.00 | 0.00 | 0.00 | 40 | 1019.0 |
| 20260903101553 | 79 | 325 | 0.9 | 8.7 | 0.00 | 0.00 | 0.00 | 41 | 1019.1 |
| 20260903100050 | 78 | 310 | 1.7 | 6.1 | 0.00 | 0.00 | 0.00 | 41 | 1019.3 |
| 20260903094547 | 78 | 326 | 0.9 | 5.2 | 0.00 | 0.00 | 0.00 | 46 | 1019.4 |
| 20260903093045 | 78 | 109 | 0.0 | 1.7 | 0.00 | 0.00 | 0.00 | 51 | 1019.7 |
| 20260903091545 | 78 | 241 | 0.0 | 3.5 | 0.00 | 0.00 | 0.00 | 51 | 1019.7 |
| 20260903090048 | 76 | 130 | 0.0 | 1.7 | 0.00 | 0.00 | 0.00 | 55 | 1019.9 |
| 20260903084541 | 76 | 148 | 0.0 | 3.5 | 0.00 | 0.00 | 0.00 | 54 | 1020.0 |
| 20260903083044 | 75 | 128 | 0.0 | 3.5 | 0.00 | 0.00 | 0.00 | 58 | 1020.1 |
| 20260903081533 | 74 | 106 | 0.0 | 2.6 | 0.00 | 0.00 | 0.00 | 59 | 1020.2 |
| 20260903080029 | 72 | 346 | 0.0 | 0.9 | 0.00 | 0.00 | 0.00 | 61 | 1020.4 |
| 20260903074526 | 71 | 346 | 0.0 | 0.0 | 0.00 | 0.00 | 0.00 | 61 | 1020.4 |
| 20260903073026 | 71 | 346 | 0.0 | 0.0 | 0.00 | 0.00 | 0.00 | 62 | 1020.3 |
| 20260903071527 | 70 | 347 | 0.0 | 0.0 | 0.00 | 0.00 | 0.00 | 62 | 1020.3 |
| 20260903070020 | 70 | 348 | 0.0 | 0.0 | 0.00 | 0.00 | 0.00 | 62 | 1020.3 |
| 20260903064516 | 69 | 347 | 0.0 | 0.0 | 0.00 | 0.00 | 0.00 | 64 | 1020.2 |
| 20260903063016 | 68 | 346 | 0.0 | 0.0 | 0.00 | 0.00 | 0.00 | 66 | 1020.1 |
| 20260903061509 | 66 | 346 | 0.0 | 0.0 | 0.00 | 0.00 | 0.00 | 69 | 1020.3 |
| 20260903060007 | 65 | 346 | 0.0 | 0.0 | 0.00 | 0.00 | 0.00 | 68 | 1020.3 |
| 20260903054511 | 65 | 346 | 0.0 | 0.0 | 0.00 | 0.00 | 0.00 | 69 | 1020.3 |
| 20260903053002 | 64 | 346 | 0.0 | 0.0 | 0.00 | 0.00 | 0.00 | 70 | 1020.1 |
| 20260903051559 | 64 | 346 | 0.0 | 0.0 | 0.00 | 0.00 | 0.00 | 69 | 1020.0 |
| 20260903050057 | 64 | 346 | 0.0 | 0.0 | 0.00 | 0.00 | 0.00 | 69 | 1020.0 |
| 20260903044559 | 63 | 346 | 0.0 | 0.0 | 0.00 | 0.00 | 0.00 | 70 | 1019.9 |
| 20260903043055 | 63 | 346 | 0.0 | 0.0 | 0.00 | 0.00 | 0.00 | 71 | 1019.7 |
| 20260903041609 | 63 | 346 | 0.0 | 0.0 | 0.00 | 0.00 | 0.00 | 73 | 1019.5 |
| 20260903040054 | 63 | 346 | 0.0 | 0.0 | 0.00 | 0.00 | 0.00 | 72 | 1019.7 |
| 20260903034553 | 63 | 346 | 0.0 | 0.0 | 0.00 | 0.00 | 0.00 | 72 | 1019.6 |
| 20260903033052 | 63 | 346 | 0.0 | 0.0 | 0.00 | 0.00 | 0.00 | 72 | 1019.6 |
| 20260903031551 | 63 | 346 | 0.0 | 0.0 | 0.00 | 0.00 | 0.00 | 71 | 1019.6 |
| 20260903030051 | 63 | 346 | 0.0 | 0.0 | 0.00 | 0.00 | 0.00 | 70 | 1019.6 |
| 20260903024549 | 63 | 346 | 0.0 | 0.0 | 0.00 | 0.00 | 0.00 | 69 | 1019.5 |
| 20260903023048 | 63 | 346 | 0.0 | 0.0 | 0.00 | 0.00 | 0.00 | 69 | 1019.5 |
| 20260903021546 | 64 | 346 | 0.0 | 0.0 | 0.00 | 0.00 | 0.00 | 68 | 1019.5 |
| 20260903020052 | 64 | 346 | 0.0 | 0.0 | 0.00 | 0.00 | 0.00 | 66 | 1019.6 |
| 20260903014605 | 65 | 346 | 0.0 | 0.0 | 0.00 | 0.00 | 0.00 | 66 | 1019.7 |
| 20260903013059 | 65 | 346 | 0.0 | 0.0 | 0.00 | 0.00 | 0.00 | 66 | 1019.8 |
| 20260903011610 | 64 | 346 | 0.0 | 0.0 | 0.00 | 0.00 | 0.00 | 67 | 1019.9 |
| 20260903010058 | 64 | 346 | 0.0 | 0.0 | 0.00 | 0.00 | 0.00 | 67 | 1019.8 |
| 20260903004542 | 64 | 346 | 0.0 | 0.0 | 0.00 | 0.00 | 0.00 | 67 | 1019.8 |
| 20260903003053 | 64 | 346 | 0.0 | 0.0 | 0.00 | 0.00 | 0.00 | 68 | 1019.8 |
| 20260903001553 | 63 | 346 | 0.0 | 0.0 | 0.00 | 0.00 | 0.00 | 69 | 1019.8 |
| 20260903000046 | 63 | 346 | 0.0 | 0.0 | 0.00 | 0.00 | 0.00 | 67 | 1019.8 |
| 20260902234542 | 63 | 346 | 0.0 | 0.0 | 0.00 | 0.00 | 0.00 | 67 | 1019.8 |
| 20260902233037 | 64 | 346 | 0.0 | 0.0 | 0.00 | 0.00 | 0.00 | 65 | 1019.7 |
| 20260902231544 | 65 | 346 | 0.0 | 0.0 | 0.00 | 0.00 | 0.00 | 64 | 1019.8 |
| 20260902230033 | 65 | 346 | 0.0 | 0.0 | 0.00 | 0.00 | 0.00 | 63 | 1019.7 |
| 20260902224530 | 65 | 346 | 0.0 | 0.0 | 0.00 | 0.00 | 0.00 | 63 | 1019.7 |
| 20260902223038 | 66 | 346 | 0.0 | 0.0 | 0.00 | 0.00 | 0.00 | 62 | 1019.7 |
| 20260902221532 | 66 | 346 | 0.0 | 0.0 | 0.00 | 0.00 | 0.00 | 62 | 1019.7 |
| 20260902220033 | 65 | 346 | 0.0 | 0.0 | 0.00 | 0.00 | 0.00 | 62 | 1019.7 |
| 20260902214527 | 66 | 346 | 0.0 | 0.0 | 0.00 | 0.00 | 0.00 | 62 | 1019.7 |
| 20260902213026 | 66 | 346 | 0.0 | 0.0 | 0.00 | 0.00 | 0.00 | 61 | 1019.5 |
| 20260902211524 | 67 | 346 | 0.0 | 1.7 | 0.00 | 0.00 | 0.00 | 59 | 1019.4 |
| 20260902210024 | 67 | 346 | 0.0 | 1.7 | 0.00 | 0.00 | 0.00 | 59 | 1019.4 |
| 20260902204525 | 67 | 355 | 0.0 | 0.9 | 0.00 | 0.00 | 0.00 | 58 | 1019.3 |
| 20260902203025 | 68 | 355 | 0.0 | 0.0 | 0.00 | 0.00 | 0.00 | 57 | 1019.2 |
| 20260902201522 | 69 | 355 | 0.0 | 0.9 | 0.00 | 0.00 | 0.00 | 55 | 1019.1 |
| 20260902200025 | 70 | 355 | 0.0 | 2.6 | 0.00 | 0.00 | 0.00 | 53 | 1019.1 |
| 20260902194536 | 71 | 308 | 0.0 | 0.9 | 0.00 | 0.00 | 0.00 | 52 | 1019.2 |
| 20260902193022 | 72 | 307 | 0.0 | 1.7 | 0.00 | 0.00 | 0.00 | 50 | 1019.1 |
| 20260902191521 | 72 | 304 | 0.0 | 0.9 | 0.00 | 0.00 | 0.00 | 50 | 1019.0 |
| 20260902190020 | 73 | 295 | 0.0 | 0.9 | 0.00 | 0.00 | 0.00 | 49 | 1018.9 |
| 20260902184526 | 74 | 295 | 0.0 | 0.9 | 0.00 | 0.00 | 0.00 | 47 | 1018.6 |
| 20260902183020 | 74 | 327 | 0.0 | 2.6 | 0.00 | 0.00 | 0.00 | 47 | 1018.4 |
| 20260902181518 | 75 | 333 | 0.0 | 1.7 | 0.00 | 0.00 | 0.00 | 46 | 1018.2 |
| 20260902180020 | 75 | 325 | 0.0 | 2.6 | 0.00 | 0.00 | 0.00 | 44 | 1017.9 |
| 20260902174518 | 76 | 355 | 0.0 | 1.7 | 0.00 | 0.00 | 0.00 | 43 | 1017.8 |
| 20260902173025 | 77 | 355 | 0.0 | 1.7 | 0.00 | 0.00 | 0.00 | 40 | 1017.6 |
| 20260902171516 | 78 | 35 | 0.0 | 1.7 | 0.00 | 0.00 | 0.00 | 38 | 1017.5 |
| 20260902170019 | 79 | 97 | 0.0 | 0.0 | 0.00 | 0.00 | 0.00 | 42 | 1017.4 |
| 20260902164515 | 80 | 98 | 0.0 | 0.0 | 0.00 | 0.00 | 0.00 | 41 | 1017.4 |
| 20260902163014 | 81 | 98 | 0.0 | 0.9 | 0.00 | 0.00 | 0.00 | 40 | 1017.4 |
| 20260902161514 | 81 | 103 | 0.0 | 1.7 | 0.00 | 0.00 | 0.00 | 40 | 1017.4 |
| 20260902160015 | 82 | 124 | 0.0 | 0.9 | 0.00 | 0.00 | 0.00 | 39 | 1017.5 |
| 20260902154512 | 82 | 331 | 0.0 | 0.9 | 0.00 | 0.00 | 0.00 | 38 | 1017.5 |
| 20260902153012 | 82 | 312 | 0.0 | 1.7 | 0.00 | 0.00 | 0.00 | 39 | 1017.6 |